User: anonymous   Login
Location: Unspecified
(0.0000°N, 0.0000°E)
Time: 19:28:19
(UTC+00:00)
Language:

Marecs 2 - Orbit

View from above orbital plane
View from above orbital plane
View from above satellite
View from above satellite

Ground track
Ground track

The orbit data is extracted from the following two-line orbital elements,

1 15386U 84114B   18017.34698765 -.00000172  00000-0  00000+0 0  9996
2 15386  16.5473 357.6419 0119254 334.7874  21.5955  0.95927873 83181
Epoch (UTC): 17 January 2018 08:19:39
Eccentricity: 0.0119254
inclination: 16.5473°
perigee height: 36532 km
apogee height: 37567 km
right ascension of ascending node: 357.6419°
argument of perigee: 334.7874°
revolutions per day: 0.95927873
mean anomaly at epoch: 21.5955°
orbit number at epoch: 8318

The dashed part of the orbit path shows where the satellite is in the earth's shadow,  

DLR